When you browse on this site, cookies collect data to enhance your experience and personalize the content and advertising you see.
Visit our Privacy Policy to learn more. By continuing to use the site, you agree to this use of cookies and data.

Hourly Weather Barcelona

Today, 15 July, Wednesday

Time Temperature Precipitation Wind Pressure Humidity
00:00 +26°C° 0 mm 2 mps 760 mmHg 92%
01:00 +26°C° 0 mm 1 mps 759 mmHg 94%
02:00 +25°C° 0 mm 1 mps 759 mmHg 95%
03:00 +25°C° 0 mm 1 mps 759 mmHg 96%
04:00 +25°C° 0 mm 1 mps 759 mmHg 96%
05:00 +25°C° 0 mm 1 mps 759 mmHg 96%
06:00 +26°C° 0 mm 1 mps 759 mmHg 93%
07:00 +27°C° 0 mm 1 mps 759 mmHg 89%
08:00 +28°C° 0 mm 1 mps 759 mmHg 86%
09:00 +30°C° 0 mm 1 mps 759 mmHg 78%
10:00 +33°C° 0 mm 1 mps 759 mmHg 70%
11:00 +35°C° 0 mm 1 mps 759 mmHg 62%
12:00 +34°C° 0.2 mm 1 mps 759 mmHg 64%
13:00 +34°C° 0.2 mm 2 mps 758 mmHg 65%
14:00 +34°C° 0.2 mm 2 mps 757 mmHg 67%
15:00 +32°C° 0.4 mm 2 mps 757 mmHg 73%
16:00 +31°C° 0.4 mm 2 mps 757 mmHg 78%
17:00 +30°C° 0.4 mm 3 mps 756 mmHg 83%
18:00 +29°C° 0.1 mm 3 mps 757 mmHg 86%
19:00 +28°C° 0.1 mm 3 mps 757 mmHg 88%
20:00 +27°C° 0.1 mm 2 mps 758 mmHg 91%
21:00 +26°C° 0 mm 2 mps 758 mmHg 91%
22:00 +26°C° 0 mm 2 mps 758 mmHg 91%
23:00 +26°C° 0 mm 2 mps 759 mmHg 92%

Tomorrow, 16 July, Thursday

Time Temperature Precipitation Wind Pressure Humidity
00:00 +25°C° 0.1 mm 2 mps 759 mmHg 93%
01:00 +25°C° 0.1 mm 2 mps 758 mmHg 93%
02:00 +25°C° 0.1 mm 1 mps 758 mmHg 94%
03:00 +25°C° 0 mm 1 mps 758 mmHg 94%
04:00 +24°C° 0 mm 1 mps 758 mmHg 95%
05:00 +24°C° 0 mm 1 mps 758 mmHg 95%
06:00 +25°C° 0 mm 1 mps 758 mmHg 91%
07:00 +27°C° 0 mm 1 mps 759 mmHg 87%
08:00 +28°C° 0 mm 1 mps 759 mmHg 84%
09:00 +30°C° 0 mm 1 mps 759 mmHg 74%
10:00 +32°C° 0 mm 2 mps 759 mmHg 64%
11:00 +35°C° 0 mm 2 mps 759 mmHg 55%
12:00 +36°C° 0.2 mm 2 mps 758 mmHg 56%
13:00 +36°C° 0.2 mm 2 mps 758 mmHg 57%
14:00 +36°C° 0.2 mm 2 mps 757 mmHg 58%
15:00 +34°C° 0.6 mm 2 mps 757 mmHg 65%
16:00 +33°C° 0.6 mm 3 mps 756 mmHg 73%
17:00 +30°C° 0.6 mm 3 mps 756 mmHg 81%
18:00 +29°C° 0.5 mm 3 mps 757 mmHg 83%
19:00 +28°C° 0.5 mm 3 mps 757 mmHg 86%
20:00 +27°C° 0.5 mm 3 mps 758 mmHg 89%
21:00 +27°C° 0 mm 2 mps 758 mmHg 91%
22:00 +26°C° 0 mm 2 mps 759 mmHg 92%
23:00 +26°C° 0 mm 2 mps 759 mmHg 93%

Day after tomorrow, 17 July, Friday

Time Temperature Precipitation Wind Pressure Humidity
00:00 +26°C° 0 mm 1 mps 759 mmHg 93%
01:00 +25°C° 0 mm 1 mps 758 mmHg 93%
02:00 +25°C° 0 mm 1 mps 758 mmHg 93%
03:00 +25°C° 0 mm 1 mps 758 mmHg 93%
04:00 +24°C° 0 mm 2 mps 758 mmHg 93%
05:00 +24°C° 0 mm 2 mps 758 mmHg 92%
06:00 +25°C° 0 mm 2 mps 758 mmHg 89%
07:00 +26°C° 0 mm 2 mps 759 mmHg 85%
08:00 +28°C° 0 mm 2 mps 759 mmHg 82%
09:00 +30°C° 0 mm 2 mps 759 mmHg 73%
10:00 +32°C° 0 mm 2 mps 759 mmHg 64%
11:00 +35°C° 0 mm 2 mps 759 mmHg 55%
12:00 +36°C° 0.1 mm 3 mps 758 mmHg 54%
13:00 +36°C° 0.1 mm 3 mps 758 mmHg 52%
14:00 +37°C° 0.1 mm 3 mps 757 mmHg 50%
15:00 +35°C° 0.2 mm 3 mps 757 mmHg 58%
16:00 +34°C° 0.2 mm 3 mps 756 mmHg 66%
17:00 +31°C° 0.2 mm 3 mps 756 mmHg 74%
18:00 +30°C° 0.1 mm 3 mps 756 mmHg 79%
19:00 +28°C° 0.1 mm 3 mps 757 mmHg 84%
20:00 +27°C° 0.1 mm 2 mps 757 mmHg 89%
21:00 +27°C° 0 mm 2 mps 758 mmHg 90%
22:00 +26°C° 0 mm 2 mps 758 mmHg 90%
23:00 +26°C° 0 mm 2 mps 759 mmHg 91%

18 July, Saturday

Time Temperature Precipitation Wind Pressure Humidity
00:00 +26°C° 0 mm 1 mps 758 mmHg 91%
01:00 +25°C° 0 mm 1 mps 758 mmHg 91%
02:00 +25°C° 0 mm 1 mps 758 mmHg 91%
03:00 +25°C° 0 mm 1 mps 758 mmHg 91%
04:00 +25°C° 0 mm 1 mps 758 mmHg 91%
05:00 +24°C° 0 mm 2 mps 758 mmHg 92%
06:00 +26°C° 0 mm 2 mps 758 mmHg 87%
07:00 +27°C° 0 mm 2 mps 758 mmHg 83%
08:00 +28°C° 0 mm 2 mps 759 mmHg 79%
09:00 +30°C° 0 mm 2 mps 759 mmHg 71%
10:00 +33°C° 0 mm 1 mps 759 mmHg 64%
11:00 +35°C° 0 mm 1 mps 759 mmHg 56%
12:00 +36°C° 0.2 mm 2 mps 758 mmHg 56%
13:00 +36°C° 0.2 mm 2 mps 757 mmHg 55%
14:00 +36°C° 0.2 mm 2 mps 757 mmHg 55%
15:00 +35°C° 0.4 mm 2 mps 756 mmHg 62%
16:00 +33°C° 0.4 mm 3 mps 756 mmHg 70%
17:00 +30°C° 0.4 mm 3 mps 755 mmHg 78%
18:00 +29°C° 0.1 mm 3 mps 756 mmHg 81%
19:00 +28°C° 0.1 mm 2 mps 756 mmHg 84%
20:00 +27°C° 0.1 mm 2 mps 757 mmHg 88%
21:00 +27°C° 0.2 mm 2 mps 757 mmHg 88%
22:00 +27°C° 0.2 mm 2 mps 758 mmHg 89%
23:00 +26°C° 0.2 mm 2 mps 758 mmHg 90%

19 July, Sunday

Time Temperature Precipitation Wind Pressure Humidity
00:00 +26°C° 0.1 mm 2 mps 758 mmHg 91%
01:00 +26°C° 0.1 mm 2 mps 758 mmHg 92%
02:00 +25°C° 0.1 mm 1 mps 757 mmHg 93%
03:00 +25°C° 0 mm 1 mps 757 mmHg 94%
04:00 +25°C° 0 mm 1 mps 757 mmHg 94%
05:00 +25°C° 0 mm 1 mps 757 mmHg 94%
06:00 +26°C° 0 mm 1 mps 758 mmHg 90%
07:00 +27°C° 0 mm 1 mps 758 mmHg 86%
08:00 +28°C° 0 mm 2 mps 758 mmHg 82%
09:00 +30°C° 0 mm 1 mps 758 mmHg 73%
10:00 +33°C° 0 mm 1 mps 758 mmHg 64%
11:00 +35°C° 0 mm 1 mps 758 mmHg 56%
12:00 +36°C° 0.3 mm 2 mps 758 mmHg 57%
13:00 +36°C° 0.3 mm 2 mps 757 mmHg 58%
14:00 +36°C° 0.3 mm 2 mps 756 mmHg 60%
15:00 +34°C° 0.5 mm 2 mps 756 mmHg 66%
16:00 +33°C° 0.5 mm 3 mps 755 mmHg 72%
17:00 +31°C° 0.5 mm 3 mps 755 mmHg 78%
18:00 +29°C° 0.3 mm 3 mps 756 mmHg 82%
19:00 +28°C° 0.3 mm 3 mps 756 mmHg 86%
20:00 +27°C° 0.3 mm 3 mps 757 mmHg 90%
21:00 +27°C° 0.5 mm 3 mps 757 mmHg 90%
22:00 +26°C° 0.5 mm 3 mps 758 mmHg 90%
23:00 +26°C° 0.5 mm 3 mps 758 mmHg 90%

20 July, Monday

Time Temperature Precipitation Wind Pressure Humidity
00:00 +26°C° 0.1 mm 2 mps 758 mmHg 91%
01:00 +25°C° 0.1 mm 2 mps 757 mmHg 92%
02:00 +25°C° 0.1 mm 1 mps 757 mmHg 94%
03:00 +25°C° 0 mm 1 mps 757 mmHg 93%
04:00 +24°C° 0 mm 1 mps 757 mmHg 93%
05:00 +24°C° 0 mm 1 mps 757 mmHg 92%
06:00 +25°C° 0 mm 1 mps 757 mmHg 89%
07:00 +26°C° 0 mm 1 mps 758 mmHg 86%
08:00 +27°C° 0 mm 1 mps 758 mmHg 82%
09:00 +29°C° 0 mm 2 mps 758 mmHg 72%
10:00 +32°C° 0 mm 2 mps 758 mmHg 62%
11:00 +35°C° 0 mm 2 mps 758 mmHg 52%
12:00 +35°C° 0.1 mm 2 mps 758 mmHg 52%
13:00 +36°C° 0.1 mm 2 mps 757 mmHg 52%
14:00 +36°C° 0.1 mm 3 mps 756 mmHg 52%
15:00 +34°C° 0.3 mm 3 mps 756 mmHg 61%
16:00 +33°C° 0.3 mm 3 mps 756 mmHg 69%
17:00 +30°C° 0.3 mm 3 mps 756 mmHg 77%
18:00 +29°C° 0.2 mm 4 mps 756 mmHg 81%
19:00 +28°C° 0.2 mm 4 mps 756 mmHg 85%
20:00 +27°C° 0.2 mm 4 mps 757 mmHg 88%
21:00 +27°C° 0.3 mm 3 mps 757 mmHg 89%
22:00 +26°C° 0.3 mm 3 mps 758 mmHg 89%
23:00 +26°C° 0.3 mm 2 mps 758 mmHg 89%
Show more